George, South Africa

9:54 PM SAST on October 22, 2017 (GMT +0200)
George

Weather History for FAGG - September, 2011

Change the Weather History Date:

Sunday, September 4, 2011

  Actual Average Record
Temperature  
Mean Temperature 56 °F -  
Max Temperature 63 °F 64 °F 94 °F (2017)
Min Temperature 50 °F 47 °F 41 °F (2013)
Degree Days  
Heating Degree Days 8    
Growing Degree Days 6 (Base 50)    
Moisture  
Dew Point 50 °F    
Average Humidity 75    
Maximum Humidity 94    
Minimum Humidity 52    
Precipitation  
Precipitation 0.00 in - - ()
Sea Level Pressure  
Sea Level Pressure 30.19 in    
Wind  
Wind Speed 9 mph ()    
Max Wind Speed 20 mph    
Max Gust Speed -    
Visibility 7.7 miles    
Events Rain    
Averages and records for this station are not official NWS values.
T = Trace of Precipitation, MM = Missing Value Source: Averaged Metar Reports

Daily Weather History Graph

Daily Weather History Graph

Search for Another Location

Airport or City:

Trip Planner

Search our weather history database for the weather conditions in past years. The results will help you decide how hot, cold, wet, or windy it might be!

Date:

Astronomy

Sep. 04, 2011 Rise Set
Actual Time 6:45 AM SAST 6:14 PM SAST
Civil Twilight 6:20 AM SAST 6:39 PM SAST
Nautical Twilight 5:51 AM SAST 7:08 PM SAST
Astronomical Twilight 5:22 AM SAST 7:37 PM SAST
Moon 10:52 AM SAST (9/4) 12:35 AM SAST (9/4)
Length of Visible Light 12h 18m
Length of Day
11h 28m
Waxing Crescent, 46% of the Moon is Illuminated
Sep 4
Waxing Crescent
Sep 4
First Quarter
Sep 12
Full
Sep 20
Last Quarter
Sep 27
New

Hourly Weather History & Observations

Time (SAST) Temp. Dew Point Humidity Pressure Visibility Wind Dir Wind Speed Gust Speed Precip Events Conditions
12:00 AM 51.8 °F 44.6 °F 76% 30.15 in - WNW 6.9 mph - N/A   Clear
1:00 AM 55.4 °F 44.6 °F 67% 30.15 in 6.2 mi NW 6.9 mph - N/A   Overcast
2:00 AM 59 °F 46 °F 52% 30.16 in 44 mi West 10.4 mph - -  
2:00 AM 59.0 °F 46.4 °F 63% 30.15 in 6.2 mi West 8.1 mph - N/A   Mostly Cloudy
3:00 AM 59.0 °F 48.2 °F 67% 30.15 in 6.2 mi West 9.2 mph - N/A   Overcast
4:00 AM 59.0 °F 48.2 °F 67% 30.12 in 6.2 mi WNW 10.4 mph - N/A   Mostly Cloudy
5:00 AM 59 °F 48 °F 57% 30.16 in 19 mi West 12.7 mph - -   Mostly Cloudy
5:00 AM 59.0 °F 48.2 °F 67% 30.15 in 6.2 mi West 13.8 mph - N/A   Mostly Cloudy
6:00 AM 59.0 °F 48.2 °F 67% 30.15 in 6.2 mi WNW 13.8 mph - N/A   Mostly Cloudy
7:00 AM 59.0 °F 48.2 °F 67% 30.18 in 6.2 mi WNW 13.8 mph - N/A   Mostly Cloudy
8:00 AM 59 °F 49 °F 60% 30.22 in 19 mi West 13.8 mph - -   Mostly Cloudy
8:00 AM 59.0 °F 48.2 °F 67% 30.21 in 6.2 mi West 15.0 mph - N/A   Mostly Cloudy
9:00 AM 60.8 °F 50.0 °F 68% 30.21 in 6.2 mi West 18.4 mph - N/A   Mostly Cloudy
10:00 AM 62.6 °F 50.0 °F 63% 30.21 in 6.2 mi West 15.0 mph - N/A   Mostly Cloudy
11:00 AM 62 °F 49 °F 53% 30.22 in 19 mi West 19.6 mph - -   Mostly Cloudy
11:00 AM 62.6 °F 50.0 °F 63% 30.21 in 6.2 mi West 19.6 mph - N/A   Mostly Cloudy
12:00 PM 57.2 °F 55.4 °F 94% 30.21 in 6.2 mi SSW 10.4 mph - N/A   Mostly Cloudy
12:12 PM 57.2 °F 55.4 °F 94% 30.21 in 3.7 mi SW 12.7 mph - N/A Rain Light Rain
1:00 PM 57.2 °F 55.4 °F 94% 30.21 in 4.3 mi SW 12.7 mph - N/A Rain Light Rain
1:54 PM 59.0 °F 55.4 °F 88% 30.21 in 6.2 mi WSW 6.9 mph - N/A   Mostly Cloudy
2:00 PM 59 °F 55 °F 82% 30.22 in 12 mi WSW 6.9 mph - - Rain Light Rain
2:00 PM 59.0 °F 55.4 °F 88% 30.21 in 6.2 mi WSW 6.9 mph - N/A   Mostly Cloudy
2:04 PM 59.0 °F 53.6 °F 82% 30.21 in 3.7 mi SW 8.1 mph - N/A Rain Light Rain
3:00 PM 59.0 °F 53.6 °F 82% 30.18 in 6.2 mi SSW 9.2 mph - N/A   Mostly Cloudy
4:00 PM 59.0 °F 51.8 °F 77% 30.21 in 6.2 mi SSW 10.4 mph - N/A   Mostly Cloudy
5:00 PM 57 °F 51 °F 74% 30.23 in 12 mi SSW 3.5 mph - -   Mostly Cloudy
5:00 PM 57.2 °F 50.0 °F 77% 30.21 in 6.2 mi South 3.5 mph - N/A   Mostly Cloudy
6:00 PM 57.2 °F 50.0 °F 77% 30.21 in 6.2 mi SW 4.6 mph - N/A   Mostly Cloudy
7:00 PM 55.4 °F 50.0 °F 82% 30.21 in 6.2 mi West 2.3 mph - N/A   Scattered Clouds
8:00 PM 56 °F 50 °F 75% 30.23 in 12 mi Calm Calm - -   Mostly Cloudy
8:00 PM 55.4 °F 50.0 °F 82% 30.21 in 6.2 mi Calm Calm - N/A   Mostly Cloudy
9:00 PM 53.6 °F 50.0 °F 88% 30.21 in 6.2 mi Variable 2.3 mph - N/A   Scattered Clouds
10:00 PM 51.8 °F 50.0 °F 94% 30.21 in 6.2 mi North 2.3 mph - N/A   Overcast
11:00 PM 51.8 °F 50.0 °F 94% 30.21 in 6.2 mi Variable 1.2 mph - N/A   Mostly Cloudy